Terug naar catalogus

SL-14 DEB

ActiefPO
NORAD 45294·DEBRIS·🇷🇺 Russia

Gelanceerd Aug 15, 1991 vanaf Plesetsk Cosmodrome

Loading…

Volgende Passages (komende 24 uur)

TLE

VersSource: Space-Track

Epoch: Sep 12, 2026, 18:01 UTC

1 45294U 91056AG  26255.75133777  .00000751  00000-0  17902-2 0  9999
2 45294  82.5643  73.8429 0013383 233.4871 126.5023 13.21708541315339

Volg SL-14 DEB in realtime met AllMySat

Download on the App Store